,,PA_Meas_PMT16A,,PR_Meas_QMR101_102,,RH_Meas_QMH101,,SR_Meas_QMS101,,TA_Meas_QMH101,,GenWind,,GenWind,
time,status,PA,status,PR,status,RH,status,SR,status,TA,status,DirAvg,status,SpdAvg,
2009-08-28, 00:00:04,VALID,920.118,VALID,0,VALID,93.5622,VALID,0,VALID,17.9872,VALID,38,VALID,0.351563,
2009-08-28, 00:01:04,VALID,920.082,VALID,0,VALID,93.6308,VALID,0,VALID,17.9872,VALID,38,VALID,0.28125,
2009-08-28, 00:02:04,VALID,920.044,VALID,0,VALID,93.5927,VALID,0,VALID,17.9872,VALID,38,VALID,0.4625,
2009-08-28, 00:03:04,VALID,920.045,VALID,0,VALID,93.4097,VALID,0,VALID,17.9677,VALID,38,VALID,0.482031,
2009-08-28, 00:04:04,VALID,920.007,VALID,0,VALID,93.4326,VALID,0,VALID,17.9872,VALID,38,VALID,0.860937,
2009-08-28, 00:05:04,VALID,919.991,VALID,0,VALID,93.6155,VALID,0,VALID,17.9468,VALID,38,VALID,0.758984,
2009-08-28, 00:06:04,VALID,920.001,VALID,0,VALID,93.7451,VALID,0,VALID,17.9858,VALID,38,VALID,0.377344,
2009-08-28, 00:07:04,VALID,919.946,VALID,0,VALID,93.5317,VALID,0,VALID,17.9468,VALID,38,VALID,0.198047,
2009-08-28, 00:08:04,VALID,919.936,VALID,0,VALID,93.829,VALID,0,VALID,17.9858,VALID,38,VALID,0.00273437,
2009-08-28, 00:09:04,VALID,919.945,VALID,0,VALID,93.8214,VALID,0,VALID,17.9858,VALID,38,VALID,0.353125,
2009-08-28, 00:10:04,VALID,919.934,VALID,0,VALID,93.5851,VALID,0,VALID,17.9663,VALID,38,VALID,0.855078,
2009-08-28, 00:11:04,VALID,919.884,VALID,0,VALID,94.0272,VALID,0,VALID,17.9663,VALID,38,VALID,0.155078,
2009-08-28, 00:12:04,VALID,919.877,VALID,0,VALID,94.0501,VALID,0,VALID,17.9468,VALID,38,VALID,1.30078,
2009-08-28, 00:13:04,VALID,919.882,VALID,0,VALID,93.7604,VALID,0,VALID,17.9079,VALID,38,VALID,0.914453,
2009-08-28, 00:14:04,VALID,919.893,VALID,0,VALID,93.8443,VALID,0,VALID,17.9092,VALID,38,VALID,0.690625,
2009-08-28, 00:15:04,VALID,919.863,VALID,0,VALID,93.7833,VALID,0,VALID,17.9287,VALID,38,VALID,0.410937,
2009-08-28, 00:16:04,VALID,919.846,VALID,0,VALID,93.7833,VALID,0,VALID,17.9287,VALID,38,VALID,0.251953,
2009-08-28, 00:17:04,VALID,919.827,VALID,0,VALID,93.8214,VALID,0,VALID,17.9274,VALID,38,VALID,0.0582031,
2009-08-28, 00:18:04,VALID,919.834,VALID,0,VALID,93.6613,VALID,0,VALID,17.9482,VALID,38,VALID,0,
2009-08-28, 00:19:04,VALID,919.843,VALID,0,VALID,93.7147,VALID,0,VALID,17.9663,VALID,38,VALID,0.401953,
2009-08-28, 00:20:04,VALID,919.814,VALID,0,VALID,93.6994,VALID,0,VALID,17.9663,VALID,38,VALID,0.6375,
2009-08-28, 00:21:04,VALID,919.827,VALID,0,VALID,92.9142,VALID,0,VALID,17.9079,VALID,38,VALID,0.817187,
2009-08-28, 00:22:04,VALID,919.803,VALID,0,VALID,92.8989,VALID,0,VALID,17.9482,VALID,38,VALID,0.633984,
2009-08-28, 00:23:04,VALID,919.836,VALID,0,VALID,92.8303,VALID,0,VALID,17.9455,VALID,38,VALID,0.462891,
2009-08-28, 00:24:04,VALID,919.851,VALID,0,VALID,92.9447,VALID,0,VALID,17.965,VALID,38,VALID,0.76875,
2009-08-28, 00:25:04,VALID,919.773,VALID,0,VALID,91.9841,VALID,0,VALID,18.0039,VALID,350,VALID,1.59375,
2009-08-28, 00:26:04,VALID,919.76,VALID,0,VALID,92.1366,VALID,0.107441,VALID,18.0624,VALID,346,VALID,0.93125,
2009-08-28, 00:27:04,VALID,919.766,VALID,0,VALID,92.2738,VALID,0,VALID,18.0833,VALID,346,VALID,0.994922,
2009-08-28, 00:28:04,VALID,919.766,VALID,0,VALID,92.716,VALID,0,VALID,18.0443,VALID,346,VALID,0.343359,
2009-08-28, 00:29:04,VALID,919.756,VALID,0,VALID,92.777,VALID,0.107441,VALID,17.9845,VALID,346,VALID,0.829297,
2009-08-28, 00:30:04,VALID,919.768,VALID,0,VALID,92.472,VALID,0,VALID,17.9845,VALID,344,VALID,1.39688,
2009-08-28, 00:31:04,VALID,919.677,VALID,0,VALID,92.4873,VALID,0.107441,VALID,18.0638,VALID,344,VALID,0.931641,
2009-08-28, 00:32:04,VALID,919.704,VALID,0,VALID,91.0007,VALID,0,VALID,18.1014,VALID,343,VALID,1.4625,
2009-08-28, 00:33:04,VALID,919.669,VALID,0,VALID,91.2447,VALID,0.107441,VALID,18.2197,VALID,12,VALID,1.51406,
2009-08-28, 00:34:04,VALID,919.664,VALID,0,VALID,91.6868,VALID,0.107441,VALID,18.1988,VALID,354,VALID,1.22031,
2009-08-28, 00:35:04,VALID,919.627,VALID,0,VALID,92.129,VALID,0,VALID,18.2197,VALID,354,VALID,0.276172,
2009-08-28, 00:36:04,VALID,919.624,VALID,0,VALID,91.946,VALID,0,VALID,18.2002,VALID,354,VALID,0.830859,
2009-08-28, 00:37:04,VALID,919.64,VALID,0,VALID,91.8469,VALID,0.107441,VALID,18.1417,VALID,215,VALID,1.04062,
2009-08-28, 00:38:04,VALID,919.569,VALID,0,VALID,92.4492,VALID,0,VALID,18.1417,VALID,215,VALID,0.640234,
2009-08-28, 00:39:04,VALID,919.533,VALID,0,VALID,92.4644,VALID,0,VALID,18.0819,VALID,215,VALID,1.5957,
2009-08-28, 00:40:04,VALID,919.512,VALID,0,VALID,92.1214,VALID,0.107441,VALID,18.1028,VALID,215,VALID,0.909375,
2009-08-28, 00:41:04,VALID,919.518,VALID,0,VALID,92.2205,VALID,0,VALID,18.1209,VALID,215,VALID,0.642969,
2009-08-28, 00:42:04,VALID,919.517,VALID,0,VALID,92.5788,VALID,0.107441,VALID,18.1222,VALID,215,VALID,0.456641,
2009-08-28, 00:43:04,VALID,919.462,VALID,0,VALID,92.8913,VALID,0.107441,VALID,18.0833,VALID,215,VALID,1.24063,
2009-08-28, 00:44:04,VALID,919.459,VALID,0,VALID,92.5254,VALID,0,VALID,18.0234,VALID,26,VALID,1.44687,
2009-08-28, 00:45:04,VALID,919.504,VALID,0,VALID,92.1366,VALID,0.107441,VALID,18.0429,VALID,337,VALID,1.20781,
2009-08-28, 00:46:04,VALID,919.497,VALID,0,VALID,91.9994,VALID,0.107441,VALID,18.0819,VALID,333,VALID,0.474609,
2009-08-28, 00:47:04,VALID,919.475,VALID,0,VALID,92.0756,VALID,0.107441,VALID,18.1222,VALID,333,VALID,0.853906,
2009-08-28, 00:48:04,VALID,919.47,VALID,0,VALID,90.7491,VALID,0,VALID,18.1209,VALID,333,VALID,1.40273,
2009-08-28, 00:49:04,VALID,919.465,VALID,0,VALID,90.6043,VALID,0.107441,VALID,18.1988,VALID,333,VALID,1.6457,
2009-08-28, 00:50:04,VALID,919.467,VALID,0,VALID,90.3985,VALID,0,VALID,18.2587,VALID,333,VALID,1.75625,
2009-08-28, 00:51:04,VALID,919.481,VALID,0,VALID,90.2612,VALID,0,VALID,18.3366,VALID,333,VALID,1.30313,
2009-08-28, 00:52:04,VALID,919.49,VALID,0,VALID,90.5128,VALID,0,VALID,18.3561,VALID,347,VALID,1.29219,
2009-08-28, 00:53:04,VALID,919.47,VALID,0,VALID,90.307,VALID,0,VALID,18.338,VALID,46,VALID,0.946875,
2009-08-28, 00:54:04,VALID,919.472,VALID,0,VALID,90.5738,VALID,0,VALID,18.2587,VALID,46,VALID,0.942187,
2009-08-28, 00:55:04,VALID,919.44,VALID,0,VALID,90.7187,VALID,0,VALID,18.2406,VALID,46,VALID,1.19961,
2009-08-28, 00:56:04,VALID,919.431,VALID,0,VALID,90.4061,VALID,0,VALID,18.2587,VALID,46,VALID,0.946484,
2009-08-28, 00:57:04,VALID,919.418,VALID,0,VALID,90.3146,VALID,0,VALID,18.2977,VALID,46,VALID,1.05625,
2009-08-28, 00:58:04,VALID,919.375,VALID,0,VALID,90.3832,VALID,0,VALID,18.2782,VALID,46,VALID,1.19219,
2009-08-28, 00:59:04,VALID,919.372,VALID,0,VALID,90.2155,VALID,0,VALID,18.2587,VALID,46,VALID,0.851172,
2009-08-28, 01:00:04,VALID,919.368,VALID,0,VALID,90.8635,VALID,0,VALID,18.2782,VALID,46,VALID,0.532422,
2009-08-28, 01:01:04,VALID,919.359,VALID,0,VALID,90.8406,VALID,0,VALID,18.2197,VALID,46,VALID,0.669141,
2009-08-28, 01:02:04,VALID,919.308,VALID,0,VALID,90.7568,VALID,0,VALID,18.1807,VALID,46,VALID,0.955469,
2009-08-28, 01:03:04,VALID,919.318,VALID,0,VALID,90.6577,VALID,0,VALID,18.1807,VALID,46,VALID,0.880859,
2009-08-28, 01:04:04,VALID,919.316,VALID,0,VALID,90.2994,VALID,0,VALID,18.2002,VALID,46,VALID,0.958594,
2009-08-28, 01:05:04,VALID,919.333,VALID,0,VALID,89.7047,VALID,0,VALID,18.2796,VALID,46,VALID,1.22305,
2009-08-28, 01:06:04,VALID,919.331,VALID,0,VALID,89.6056,VALID,0,VALID,18.3366,VALID,46,VALID,0.805469,
2009-08-28, 01:07:04,VALID,919.327,VALID,0,VALID,89.415,VALID,0,VALID,18.3965,VALID,46,VALID,0.923437,
2009-08-28, 01:08:04,VALID,919.333,VALID,0,VALID,89.0796,VALID,0,VALID,18.416,VALID,46,VALID,0.886328,
2009-08-28, 01:09:04,VALID,919.31,VALID,0,VALID,89.2931,VALID,0,VALID,18.4355,VALID,46,VALID,0.899219,
2009-08-28, 01:10:04,VALID,919.283,VALID,0,VALID,89.4227,VALID,0,VALID,18.416,VALID,46,VALID,1.04062,
2009-08-28, 01:11:04,VALID,919.267,VALID,0,VALID,89.659,VALID,0,VALID,18.377,VALID,46,VALID,1.01016,
2009-08-28, 01:12:04,VALID,919.282,VALID,0,VALID,89.7657,VALID,0,VALID,18.338,VALID,46,VALID,0.94375,
2009-08-28, 01:13:04,VALID,919.255,VALID,0,VALID,89.9487,VALID,0,VALID,18.3185,VALID,46,VALID,0.841016,
2009-08-28, 01:14:04,VALID,919.263,VALID,0,VALID,90.3908,VALID,0,VALID,18.299,VALID,46,VALID,0.764844,
2009-08-28, 01:15:04,VALID,919.254,VALID,0,VALID,90.5052,VALID,0,VALID,18.2392,VALID,46,VALID,1.10195,
2009-08-28, 01:16:04,VALID,919.236,VALID,0,VALID,90.7034,VALID,0,VALID,18.2406,VALID,45,VALID,0.809766,
2009-08-28, 01:17:04,VALID,919.21,VALID,0,VALID,90.9626,VALID,0,VALID,18.2406,VALID,45,VALID,0.621094,
2009-08-28, 01:18:04,VALID,919.232,VALID,0,VALID,90.9702,VALID,0,VALID,18.2406,VALID,45,VALID,0.678125,
2009-08-28, 01:19:04,VALID,919.206,VALID,0,VALID,91.6487,VALID,0,VALID,18.2197,VALID,45,VALID,0.3875,
2009-08-28, 01:20:04,VALID,919.206,VALID,0,VALID,91.5267,VALID,0,VALID,18.2002,VALID,45,VALID,1.04609,
2009-08-28, 01:21:04,VALID,919.192,VALID,0,VALID,91.6258,VALID,0,VALID,18.1807,VALID,45,VALID,0.710156,
2009-08-28, 01:22:04,VALID,919.183,VALID,0,VALID,91.8012,VALID,0,VALID,18.1626,VALID,45,VALID,0.537891,
2009-08-28, 01:23:04,VALID,919.191,VALID,0,VALID,92.1976,VALID,0,VALID,18.1431,VALID,45,VALID,0.611328,
2009-08-28, 01:24:04,VALID,919.221,VALID,0,VALID,92.5559,VALID,0,VALID,18.1028,VALID,45,VALID,0.237109,
2009-08-28, 01:25:04,VALID,919.205,VALID,0,VALID,92.472,VALID,0,VALID,18.0846,VALID,45,VALID,1.11719,
2009-08-28, 01:26:04,VALID,919.205,VALID,0,VALID,92.3272,VALID,0,VALID,18.0846,VALID,4,VALID,1.66055,
2009-08-28, 01:27:04,VALID,919.163,VALID,0,VALID,92.4187,VALID,0,VALID,18.0846,VALID,1,VALID,1.25664,
2009-08-28, 01:28:04,VALID,919.145,VALID,0,VALID,92.0756,VALID,0,VALID,18.0457,VALID,1,VALID,1.34297,
2009-08-28, 01:29:04,VALID,919.149,VALID,0,VALID,92.4263,VALID,0,VALID,18.0638,VALID,29,VALID,1.61445,
2009-08-28, 01:30:04,VALID,919.119,VALID,0,VALID,92.4415,VALID,0,VALID,18.0846,VALID,3,VALID,1.21211,
2009-08-28, 01:31:04,VALID,919.161,VALID,0,VALID,92.4263,VALID,0,VALID,18.0651,VALID,348,VALID,1.57969,
2009-08-28, 01:32:04,VALID,919.149,VALID,0,VALID,92.9371,VALID,0,VALID,18.0457,VALID,322,VALID,0.662109,
2009-08-28, 01:33:04,VALID,919.137,VALID,0,VALID,93.059,VALID,0,VALID,18.0262,VALID,322,VALID,1.03906,
2009-08-28, 01:34:04,VALID,919.12,VALID,0,VALID,93.2115,VALID,0,VALID,18.0067,VALID,323,VALID,1.34687,
2009-08-28, 01:35:04,VALID,919.156,VALID,0,VALID,93.364,VALID,0,VALID,17.9872,VALID,323,VALID,1.7043,
2009-08-28, 01:36:04,VALID,919.145,VALID,0,VALID,93.1353,VALID,0,VALID,17.9872,VALID,12,VALID,1.06523,
2009-08-28, 01:37:04,VALID,919.173,VALID,0,VALID,93.181,VALID,0,VALID,17.9872,VALID,329,VALID,1.13906,
2009-08-28, 01:38:04,VALID,919.164,VALID,0,VALID,93.303,VALID,0,VALID,17.9872,VALID,329,VALID,0.407422,
2009-08-28, 01:39:04,VALID,919.176,VALID,0,VALID,93.6232,VALID,0,VALID,17.9872,VALID,329,VALID,0.346875,
2009-08-28, 01:40:04,VALID,919.224,VALID,0,VALID,93.3716,VALID,0,VALID,17.9677,VALID,329,VALID,0.920703,
2009-08-28, 01:41:04,VALID,919.205,VALID,0,VALID,93.2801,VALID,0,VALID,17.9872,VALID,329,VALID,1.05391,
2009-08-28, 01:42:04,VALID,919.214,VALID,0,VALID,93.181,VALID,0,VALID,17.9872,VALID,330,VALID,1.15117,
2009-08-28, 01:43:04,VALID,919.178,VALID,0,VALID,93.1353,VALID,0,VALID,18.0067,VALID,351,VALID,1.25625,
2009-08-28, 01:44:04,VALID,919.177,VALID,0,VALID,92.5864,VALID,0,VALID,18.0053,VALID,10,VALID,1.48125,
2009-08-28, 01:45:04,VALID,919.143,VALID,0,VALID,92.2662,VALID,0,VALID,18.0846,VALID,17,VALID,0.817969,
2009-08-28, 01:46:04,VALID,919.146,VALID,0,VALID,92.0146,VALID,0,VALID,18.1236,VALID,336,VALID,1.11016,
2009-08-28, 01:47:04,VALID,919.13,VALID,0,VALID,91.8545,VALID,0,VALID,18.1626,VALID,336,VALID,0.934375,
2009-08-28, 01:48:04,VALID,919.138,VALID,0,VALID,91.9384,VALID,0,VALID,18.1821,VALID,336,VALID,1.24336,
2009-08-28, 01:49:04,VALID,919.127,VALID,0,VALID,92.0832,VALID,0,VALID,18.1821,VALID,336,VALID,0.776172,
2009-08-28, 01:50:04,VALID,919.097,VALID,0,VALID,91.7021,VALID,0,VALID,18.1626,VALID,345,VALID,1.87227,
2009-08-28, 01:51:04,VALID,919.099,VALID,0,VALID,91.5267,VALID,0,VALID,18.1821,VALID,9,VALID,1.62656,
2009-08-28, 01:52:04,VALID,919.051,VALID,0,VALID,91.7021,VALID,0,VALID,18.2016,VALID,14,VALID,1.74609,
2009-08-28, 01:53:04,VALID,919.073,VALID,0,VALID,91.1151,VALID,0,VALID,18.2406,VALID,3,VALID,1.61172,
2009-08-28, 01:54:04,VALID,919.053,VALID,0,VALID,90.6348,VALID,0,VALID,18.2796,VALID,4,VALID,2.01758,
2009-08-28, 01:55:04,VALID,919.077,VALID,0,VALID,90.5814,VALID,0,VALID,18.3185,VALID,16,VALID,1.72148,
2009-08-28, 01:56:04,VALID,919.061,VALID,0,VALID,90.3756,VALID,0,VALID,18.3366,VALID,22,VALID,1.26953,
2009-08-28, 01:57:04,VALID,919.058,VALID,0,VALID,90.5433,VALID,0,VALID,18.3575,VALID,22,VALID,0.901953,
2009-08-28, 01:58:04,VALID,919.062,VALID,0,VALID,90.5586,VALID,0,VALID,18.3172,VALID,22,VALID,0.616797,
2009-08-28, 01:59:04,VALID,919.048,VALID,0,VALID,90.9169,VALID,0,VALID,18.3589,VALID,22,VALID,0.621484,
2009-08-28, 02:00:04,VALID,919.027,VALID,0,VALID,90.4061,VALID,0,VALID,18.338,VALID,22,VALID,1.52031,
2009-08-28, 02:01:04,VALID,919.031,VALID,0,VALID,89.72,VALID,0,VALID,18.3575,VALID,21,VALID,1.20664,
2009-08-28, 02:02:04,VALID,919.011,VALID,0,VALID,89.8572,VALID,0,VALID,18.416,VALID,20,VALID,1.16406,
2009-08-28, 02:03:04,VALID,919.043,VALID,0,VALID,89.2016,VALID,0,VALID,18.4355,VALID,19,VALID,0.89375,
2009-08-28, 02:04:04,VALID,919,VALID,0,VALID,89.2473,VALID,0,VALID,18.4745,VALID,19,VALID,1.23125,
2009-08-28, 02:05:04,VALID,919.001,VALID,0,VALID,88.4926,VALID,0,VALID,18.4745,VALID,19,VALID,1.53398,
2009-08-28, 02:06:04,VALID,918.973,VALID,0,VALID,86.4648,VALID,0,VALID,18.6109,VALID,12,VALID,2.47383,
2009-08-28, 02:07:04,VALID,918.986,VALID,0,VALID,87.5549,VALID,0,VALID,18.7669,VALID,12,VALID,1.38086,
2009-08-28, 02:08:04,VALID,918.97,VALID,0,VALID,87.9437,VALID,0,VALID,18.7864,VALID,12,VALID,0.941406,
2009-08-28, 02:09:04,VALID,918.942,VALID,0,VALID,87.8065,VALID,0,VALID,18.7474,VALID,12,VALID,1.20508,
2009-08-28, 02:10:04,VALID,918.94,VALID,0,VALID,87.2729,VALID,0,VALID,18.7279,VALID,12,VALID,1.53164,
2009-08-28, 02:11:04,VALID,918.947,VALID,0,VALID,87.372,VALID,0,VALID,18.7474,VALID,11,VALID,1.63672,
2009-08-28, 02:12:04,VALID,918.927,VALID,0,VALID,87.6464,VALID,0,VALID,18.7474,VALID,11,VALID,1.22344,
2009-08-28, 02:13:04,VALID,918.971,VALID,0,VALID,87.2805,VALID,0,VALID,18.7279,VALID,11,VALID,1.38164,
2009-08-28, 02:14:04,VALID,918.965,VALID,0,VALID,88.2563,VALID,0,VALID,18.7279,VALID,11,VALID,1.16797,
2009-08-28, 02:15:04,VALID,918.964,VALID,0,VALID,88.2563,VALID,0,VALID,18.6889,VALID,11,VALID,1.10586,
2009-08-28, 02:16:04,VALID,918.991,VALID,0,VALID,88.8128,VALID,0,VALID,18.6694,VALID,11,VALID,0.925,
2009-08-28, 02:17:04,VALID,918.994,VALID,0,VALID,89.0034,VALID,0,VALID,18.5914,VALID,11,VALID,0.562109,
2009-08-28, 02:18:04,VALID,918.983,VALID,0,VALID,89.3236,VALID,0,VALID,18.5525,VALID,11,VALID,0.620703,
2009-08-28, 02:19:04,VALID,918.95,VALID,0,VALID,89.6056,VALID,0,VALID,18.494,VALID,11,VALID,0.715234,
2009-08-28, 02:20:04,VALID,918.979,VALID,0,VALID,90.1926,VALID,0,VALID,18.455,VALID,11,VALID,0.524219,
2009-08-28, 02:21:04,VALID,918.93,VALID,0,VALID,90.1698,VALID,0,VALID,18.416,VALID,11,VALID,0.628906,
2009-08-28, 02:22:04,VALID,918.939,VALID,0,VALID,90.1316,VALID,0,VALID,18.377,VALID,11,VALID,0.479297,
2009-08-28, 02:23:04,VALID,918.949,VALID,0,VALID,90.5814,VALID,0.107441,VALID,18.3352,VALID,11,VALID,0.411719,
2009-08-28, 02:24:04,VALID,918.929,VALID,0,VALID,89.9487,VALID,0,VALID,18.3366,VALID,32,VALID,1.20195,
2009-08-28, 02:25:04,VALID,918.886,VALID,0,VALID,89.7429,VALID,0,VALID,18.3561,VALID,32,VALID,1.33711,
2009-08-28, 02:26:04,VALID,918.899,VALID,0,VALID,89.2702,VALID,0,VALID,18.3951,VALID,32,VALID,1.57773,
2009-08-28, 02:27:04,VALID,918.911,VALID,0,VALID,89.6209,VALID,0,VALID,18.4146,VALID,31,VALID,0.701953,
2009-08-28, 02:28:04,VALID,918.902,VALID,0,VALID,89.6895,VALID,0,VALID,18.4536,VALID,31,VALID,0.552734,
2009-08-28, 02:29:04,VALID,918.886,VALID,0,VALID,90.6653,VALID,0,VALID,18.4341,VALID,31,VALID,0.119922,
2009-08-28, 02:30:04,VALID,918.883,VALID,0,VALID,90.5204,VALID,0.107441,VALID,18.3547,VALID,31,VALID,0.812109,
2009-08-28, 02:31:04,VALID,918.844,VALID,0,VALID,89.8115,VALID,0.107441,VALID,18.3561,VALID,343,VALID,0.99375,
2009-08-28, 02:32:04,VALID,918.845,VALID,0,VALID,89.072,VALID,0.107441,VALID,18.3561,VALID,343,VALID,0.813281,
2009-08-28, 02:33:04,VALID,918.805,VALID,0,VALID,90.2079,VALID,0,VALID,18.3951,VALID,343,VALID,0.823828,
2009-08-28, 02:34:04,VALID,918.818,VALID,0,VALID,89.072,VALID,0.107441,VALID,18.3756,VALID,343,VALID,1.52227,
2009-08-28, 02:35:04,VALID,918.824,VALID,0,VALID,88.8433,VALID,0.107441,VALID,18.3547,VALID,344,VALID,1.17305,
2009-08-28, 02:36:04,VALID,918.819,VALID,0,VALID,88.9958,VALID,0.107441,VALID,18.4341,VALID,344,VALID,1.05,
2009-08-28, 02:37:04,VALID,918.817,VALID,0,VALID,88.3783,VALID,0.107441,VALID,18.4522,VALID,344,VALID,0.808984,
2009-08-28, 02:38:04,VALID,918.828,VALID,0,VALID,88.4774,VALID,0,VALID,18.4926,VALID,344,VALID,0.933594,
2009-08-28, 02:39:04,VALID,918.812,VALID,0,VALID,88.5841,VALID,0,VALID,18.5135,VALID,344,VALID,0.778125,
2009-08-28, 02:40:04,VALID,918.816,VALID,0,VALID,88.8204,VALID,0,VALID,18.4926,VALID,344,VALID,0.559766,
2009-08-28, 02:41:04,VALID,918.801,VALID,0,VALID,88.7671,VALID,0,VALID,18.494,VALID,344,VALID,0.484375,
2009-08-28, 02:42:04,VALID,918.852,VALID,0,VALID,88.6451,VALID,0,VALID,18.4731,VALID,344,VALID,0.815234,
2009-08-28, 02:43:04,VALID,918.799,VALID,0,VALID,88.0276,VALID,0,VALID,18.4745,VALID,344,VALID,0.998047,
2009-08-28, 02:44:04,VALID,918.786,VALID,0,VALID,88.6756,VALID,0,VALID,18.5135,VALID,344,VALID,0.617969,
2009-08-28, 02:45:04,VALID,918.796,VALID,0,VALID,87.715,VALID,0,VALID,18.4926,VALID,344,VALID,1.14102,
2009-08-28, 02:46:04,VALID,918.796,VALID,0,VALID,87.9209,VALID,0,VALID,18.5511,VALID,344,VALID,1.18594,
2009-08-28, 02:47:04,VALID,918.778,VALID,0,VALID,88.4926,VALID,0,VALID,18.572,VALID,344,VALID,0.666406,
2009-08-28, 02:48:04,VALID,918.788,VALID,0,VALID,88.3401,VALID,0,VALID,18.533,VALID,344,VALID,1.0082,
2009-08-28, 02:49:04,VALID,918.757,VALID,0,VALID,88.6527,VALID,0,VALID,18.5135,VALID,344,VALID,0.987891,
2009-08-28, 02:50:04,VALID,918.784,VALID,0,VALID,89.3159,VALID,0,VALID,18.4926,VALID,344,VALID,0.978125,
2009-08-28, 02:51:04,VALID,918.787,VALID,0,VALID,88.3401,VALID,0,VALID,18.455,VALID,344,VALID,0.859375,
2009-08-28, 02:52:04,VALID,918.778,VALID,0,VALID,89.011,VALID,0,VALID,18.455,VALID,344,VALID,0.649609,
2009-08-28, 02:53:04,VALID,918.741,VALID,0,VALID,88.9271,VALID,0,VALID,18.4355,VALID,352,VALID,1.25742,
2009-08-28, 02:54:04,VALID,918.761,VALID,0,VALID,88.6375,VALID,0,VALID,18.455,VALID,354,VALID,0.690625,
2009-08-28, 02:55:04,VALID,918.726,VALID,0,VALID,88.8433,VALID,0,VALID,18.455,VALID,354,VALID,0.903125,
2009-08-28, 02:56:04,VALID,918.705,VALID,0,VALID,88.9043,VALID,0,VALID,18.4355,VALID,354,VALID,1.1043,
2009-08-28, 02:57:04,VALID,918.703,VALID,0,VALID,89.5675,VALID,0,VALID,18.4355,VALID,354,VALID,1.15313,
2009-08-28, 02:58:04,VALID,918.679,VALID,0,VALID,89.1635,VALID,0,VALID,18.416,VALID,354,VALID,1.02383,
2009-08-28, 02:59:04,VALID,918.686,VALID,0,VALID,88.2944,VALID,0,VALID,18.3965,VALID,6,VALID,1.55586,
2009-08-28, 03:00:04,VALID,918.683,VALID,0,VALID,89.1559,VALID,0,VALID,18.416,VALID,9,VALID,1.25781,
2009-08-28, 03:01:04,VALID,918.656,VALID,0,VALID,89.2016,VALID,0,VALID,18.3951,VALID,9,VALID,1.18516,
2009-08-28, 03:02:04,VALID,918.665,VALID,0,VALID,89.9487,VALID,0,VALID,18.377,VALID,9,VALID,0.903906,
2009-08-28, 03:03:04,VALID,918.631,VALID,0,VALID,90.0783,VALID,0,VALID,18.299,VALID,9,VALID,1.25078,
2009-08-28, 03:04:04,VALID,918.596,VALID,0,VALID,90.246,VALID,0,VALID,18.2601,VALID,9,VALID,0.889063,
2009-08-28, 03:05:04,VALID,918.622,VALID,0,VALID,90.5281,VALID,0,VALID,18.2406,VALID,9,VALID,1.07734,
2009-08-28, 03:06:04,VALID,918.597,VALID,0,VALID,90.7491,VALID,0,VALID,18.2016,VALID,9,VALID,1.39727,
2009-08-28, 03:07:04,VALID,918.568,VALID,0,VALID,91.1303,VALID,0,VALID,18.1626,VALID,9,VALID,1.12266,
2009-08-28, 03:08:04,VALID,918.61,VALID,0,VALID,90.9473,VALID,0.107441,VALID,18.1209,VALID,9,VALID,0.846094,
2009-08-28, 03:09:04,VALID,918.575,VALID,0,VALID,91.2066,VALID,0,VALID,18.1222,VALID,9,VALID,1.26719,
2009-08-28, 03:10:04,VALID,918.572,VALID,0,VALID,91.3133,VALID,0,VALID,18.1028,VALID,9,VALID,1.62695,
2009-08-28, 03:11:04,VALID,918.568,VALID,0,VALID,91.2142,VALID,0.107441,VALID,18.1222,VALID,9,VALID,1.23828,
2009-08-28, 03:12:04,VALID,918.533,VALID,0,VALID,91.4581,VALID,0,VALID,18.1014,VALID,9,VALID,0.424609,
2009-08-28, 03:13:04,VALID,918.553,VALID,0,VALID,91.4657,VALID,0,VALID,18.1222,VALID,9,VALID,0.833203,
2009-08-28, 03:14:04,VALID,918.55,VALID,0,VALID,92.0375,VALID,0,VALID,18.0819,VALID,9,VALID,0.719141,
2009-08-28, 03:15:04,VALID,918.514,VALID,0,VALID,92.1442,VALID,0,VALID,18.0638,VALID,9,VALID,1.31211,
2009-08-28, 03:16:04,VALID,918.489,VALID,0,VALID,91.3209,VALID,0,VALID,18.0248,VALID,9,VALID,1.29688,
2009-08-28, 03:17:04,VALID,918.536,VALID,0,VALID,92.1595,VALID,0,VALID,18.0833,VALID,9,VALID,0.351953,
2009-08-28, 03:18:04,VALID,918.523,VALID,0,VALID,92.2662,VALID,0,VALID,18.0638,VALID,9,VALID,0.0332031,
2009-08-28, 03:19:04,VALID,918.502,VALID,0,VALID,92.3043,VALID,0.107441,VALID,18.0443,VALID,9,VALID,0.3375,
2009-08-28, 03:20:04,VALID,918.523,VALID,0,VALID,92.5864,VALID,0,VALID,18.0248,VALID,9,VALID,0,
2009-08-28, 03:21:04,VALID,918.502,VALID,0,VALID,93.0514,VALID,0,VALID,18.0248,VALID,9,VALID,0.0945313,
2009-08-28, 03:22:04,VALID,918.471,VALID,0,VALID,93.4783,VALID,0,VALID,17.9858,VALID,9,VALID,0.163281,
2009-08-28, 03:23:04,VALID,918.488,VALID,0,VALID,93.5469,VALID,0,VALID,17.926,VALID,9,VALID,0.707812,
2009-08-28, 03:24:04,VALID,918.515,VALID,0,VALID,93.7756,VALID,0,VALID,17.9079,VALID,9,VALID,0.60625,
2009-08-28, 03:25:04,VALID,918.517,VALID,0,VALID,93.9662,VALID,0,VALID,17.8884,VALID,9,VALID,0.305469,
2009-08-28, 03:26:04,VALID,918.517,VALID,0,VALID,94.0882,VALID,0,VALID,17.8884,VALID,9,VALID,0.190234,
2009-08-28, 03:27:04,VALID,918.508,VALID,0,VALID,94.1416,VALID,0,VALID,17.8689,VALID,9,VALID,0.492578,
2009-08-28, 03:28:04,VALID,918.497,VALID,0,VALID,94.1644,VALID,0,VALID,17.8494,VALID,9,VALID,0.607031,
2009-08-28, 03:29:04,VALID,918.457,VALID,0,VALID,94.3626,VALID,0.107441,VALID,17.8494,VALID,9,VALID,0.698438,
2009-08-28, 03:30:04,VALID,918.48,VALID,0,VALID,94.4922,VALID,0,VALID,17.8286,VALID,9,VALID,0.556641,
2009-08-28, 03:31:04,VALID,918.472,VALID,0,VALID,94.5685,VALID,0.107441,VALID,17.8299,VALID,9,VALID,0.101172,
2009-08-28, 03:32:04,VALID,918.457,VALID,0,VALID,94.4541,VALID,0,VALID,17.7896,VALID,9,VALID,0.704297,
2009-08-28, 03:33:04,VALID,918.474,VALID,0,VALID,94.0043,VALID,0,VALID,17.7909,VALID,9,VALID,0.949219,
2009-08-28, 03:34:04,VALID,918.468,VALID,0,VALID,93.4478,VALID,0.107441,VALID,17.7909,VALID,9,VALID,0.760547,
2009-08-28, 03:35:04,VALID,918.462,VALID,0,VALID,93.059,VALID,0,VALID,17.8494,VALID,9,VALID,1.00273,
2009-08-28, 03:36:04,VALID,918.457,VALID,0,VALID,92.6321,VALID,0.107441,VALID,17.8884,VALID,9,VALID,0.717578,
2009-08-28, 03:37:04,VALID,918.485,VALID,0,VALID,92.0909,VALID,0.107441,VALID,17.9079,VALID,9,VALID,0.721094,
2009-08-28, 03:38:04,VALID,918.498,VALID,0,VALID,92.3196,VALID,0,VALID,17.9663,VALID,9,VALID,0.646484,
2009-08-28, 03:39:04,VALID,918.48,VALID,0,VALID,91.9003,VALID,0,VALID,17.9872,VALID,9,VALID,1.50039,
2009-08-28, 03:40:04,VALID,918.503,VALID,0,VALID,91.7631,VALID,0,VALID,18.0067,VALID,9,VALID,0.966406,
2009-08-28, 03:41:04,VALID,918.484,VALID,0,VALID,91.3971,VALID,0,VALID,18.0833,VALID,345,VALID,1.00898,
2009-08-28, 03:42:04,VALID,918.5,VALID,0,VALID,90.2155,VALID,0,VALID,18.1626,VALID,345,VALID,1.25156,
2009-08-28, 03:43:04,VALID,918.472,VALID,0,VALID,89.7581,VALID,0,VALID,18.2211,VALID,345,VALID,1.04375,
2009-08-28, 03:44:04,VALID,918.495,VALID,0,VALID,90.4366,VALID,0,VALID,18.2601,VALID,345,VALID,0.874219,
2009-08-28, 03:45:04,VALID,918.498,VALID,0,VALID,90.4671,VALID,0,VALID,18.2211,VALID,345,VALID,1.42461,